TimeBST,TemperatureF,Dew PointF,Humidity,Sea Level PressureIn,VisibilityMPH,Wind Direction,Wind SpeedMPH,Gust SpeedMPH,PrecipitationIn,Events,Conditions,WindDirDegrees,DateUTC
12:50 AM,50.0,44.6,82,29.77,6.2,South,8.1,-,N/A,,Scattered Clouds,190,2012-10-12 23:50:00
1:50 AM,48.2,42.8,82,29.77,6.2,SSW,6.9,-,N/A,,Partly Cloudy,210,2012-10-13 00:50:00
2:50 AM,46.4,42.8,87,29.71,6.2,SW,4.6,-,N/A,,Partly Cloudy,220,2012-10-13 01:50:00
3:50 AM,46.4,42.8,87,29.71,-9999.0,SW,4.6,-,N/A,,Clear,220,2012-10-13 02:50:00
4:50 AM,44.6,41.0,87,29.68,6.2,WSW,2.3,-,N/A,,Partly Cloudy,250,2012-10-13 03:50:00
5:20 AM,44.6,42.8,93,29.68,6.2,Calm,Calm,-,N/A,,Partly Cloudy,0,2012-10-13 04:20:00
5:50 AM,44.6,42.8,93,29.68,6.2,Calm,Calm,-,N/A,,Partly Cloudy,0,2012-10-13 04:50:00
6:20 AM,46.4,42.8,87,29.68,6.2,South,3.5,-,N/A,,Partly Cloudy,190,2012-10-13 05:20:00
6:50 AM,46.4,44.6,93,29.68,6.2,SSW,4.6,-,N/A,,Partly Cloudy,200,2012-10-13 05:50:00
7:20 AM,44.6,41.0,87,29.65,6.2,SW,4.6,-,N/A,,Partly Cloudy,220,2012-10-13 06:20:00
7:50 AM,44.6,41.0,87,29.65,6.2,Calm,Calm,-,N/A,,Partly Cloudy,0,2012-10-13 06:50:00
8:20 AM,44.6,42.8,93,29.65,6.2,WSW,2.3,-,N/A,,Partly Cloudy,250,2012-10-13 07:20:00
8:50 AM,46.4,42.8,87,29.65,6.2,SW,3.5,-,N/A,,Partly Cloudy,220,2012-10-13 07:50:00
9:20 AM,48.2,44.6,87,29.65,6.2,SW,2.3,-,N/A,,Partly Cloudy,220,2012-10-13 08:20:00
9:50 AM,48.2,44.6,87,29.65,6.2,NW,1.2,-,N/A,,Partly Cloudy,310,2012-10-13 08:50:00
10:20 AM,50.0,44.6,82,29.65,6.2,WSW,4.6,-,N/A,,Partly Cloudy,250,2012-10-13 09:20:00
10:50 AM,51.8,44.6,76,29.65,6.2,West,5.8,-,N/A,,Partly Cloudy,260,2012-10-13 09:50:00
11:20 AM,51.8,44.6,76,29.65,6.2,WSW,6.9,-,N/A,,Partly Cloudy,250,2012-10-13 10:20:00
11:50 AM,53.6,44.6,72,29.65,6.2,SW,8.1,-,N/A,,Partly Cloudy,230,2012-10-13 10:50:00
12:20 PM,51.8,42.8,71,29.62,6.2,WSW,9.2,-,N/A,,Scattered Clouds,250,2012-10-13 11:20:00
12:50 PM,53.6,44.6,72,29.62,6.2,WSW,8.1,-,N/A,,Scattered Clouds,240,2012-10-13 11:50:00
1:20 PM,55.4,44.6,67,29.62,6.2,West,6.9,-,N/A,,Scattered Clouds,270,2012-10-13 12:20:00
1:50 PM,53.6,41.0,62,29.62,6.2,WNW,10.4,-,N/A,,Scattered Clouds,290,2012-10-13 12:50:00
2:20 PM,53.6,41.0,62,29.62,6.2,WNW,9.2,-,N/A,,Scattered Clouds,300,2012-10-13 13:20:00
2:50 PM,51.8,42.8,71,29.62,6.2,WNW,8.1,-,N/A,,Partly Cloudy,300,2012-10-13 13:50:00
3:20 PM,53.6,42.8,67,29.59,6.2,WNW,4.6,-,N/A,,Partly Cloudy,290,2012-10-13 14:20:00
3:50 PM,53.6,42.8,67,29.59,6.2,West,10.4,-,N/A,,Partly Cloudy,280,2012-10-13 14:50:00
4:20 PM,53.6,42.8,67,29.59,6.2,West,8.1,-,N/A,,Partly Cloudy,280,2012-10-13 15:20:00
4:50 PM,53.6,42.8,67,29.59,6.2,West,10.4,-,N/A,,Partly Cloudy,270,2012-10-13 15:50:00
5:20 PM,51.8,41.0,67,29.59,6.2,West,11.5,-,N/A,,Scattered Clouds,280,2012-10-13 16:20:00
5:50 PM,50.0,41.0,71,29.62,6.2,West,8.1,-,N/A,,Partly Cloudy,280,2012-10-13 16:50:00
6:20 PM,48.2,39.2,71,29.62,6.2,West,5.8,-,N/A,,Partly Cloudy,280,2012-10-13 17:20:00
6:50 PM,46.4,39.2,76,29.62,6.2,West,4.6,-,N/A,,Partly Cloudy,270,2012-10-13 17:50:00
7:50 PM,46.4,39.2,76,29.62,6.2,WNW,9.2,-,N/A,Rain,Light Rain Showers,300,2012-10-13 18:50:00
8:50 PM,44.6,41.0,87,29.62,6.2,West,5.8,-,N/A,,Partly Cloudy,260,2012-10-13 19:50:00
9:20 PM,44.6,41.0,87,29.62,6.2,West,5.8,-,N/A,,Partly Cloudy,260,2012-10-13 20:20:00
9:50 PM,44.6,41.0,87,29.62,6.2,West,6.9,-,N/A,,Scattered Clouds,270,2012-10-13 20:50:00
10:20 PM,44.6,41.0,87,29.62,6.2,West,6.9,-,N/A,,Partly Cloudy,270,2012-10-13 21:20:00
10:50 PM,42.8,39.2,87,29.62,6.2,WSW,6.9,-,N/A,,Partly Cloudy,250,2012-10-13 21:50:00
11:20 PM,42.8,39.2,87,29.62,6.2,WSW,6.9,-,N/A,,Partly Cloudy,250,2012-10-13 22:20:00
11:50 PM,44.6,41.0,87,29.62,-9999.0,West,8.1,-,N/A,,Clear,260,2012-10-13 22:50:00